Tracking 27112 objects as of 27-Mar-2023
HD Live streaming from Space Station
objects crossing your sky now

AUREOLE 2

Track AUREOLE 2 now!
10-day predictions
AUREOLE 2 is classified as:


NORAD ID: 7003
Int'l Code: 1973-107A
Perigee: 368.5 km
Apogee: 835.8 km
Inclination: 73.9 °
Period: 96.6 minutes
Semi major axis: 6973 km
RCS: 2.1042 m2 (large)
Launch date: December 26, 1973
Source: France (FR)
Launch site: PLESETSK MISSILE AND SPACE COMPLEX (PKMTR)
Your satellite tracking list
Your tracking list is empty




NASA's NSSDC Master Catalog

Two Line Element Set (TLE):
1 07003U 73107A   23085.93669031  .00016343  00000-0  54730-3 0  9992
2 07003  73.9213 155.2891 0335071  17.2465 343.9773 14.90941184525269
Source of the keplerian elements: AFSPC